Flag for Morocco Weather past 2 weeks in Rabat, Morocco

Now
72 °F

Clear.


Feels Like: 75 °F
Forecast: 61 / 71 °F
Wind: 13 mph from West

Location: Rabat-Sale

Current Time: May 4, 2015 at 4:10:16 PM

Latest Report: May 4, 2015 at 3:30 PM


Visibility: 5 mi

Pressure: 29.92 "Hg

Humidity: 65%

Dew point: 59 °F

Location of RabatLocation

Historic Weather in Rabat — Graph

°F

Rabat temperature yesterday

Maximum temperature yesterday: 79 °F (at 11:30 AM)
Minimum temperature yesterday: 55 °F (at 2:00 AM)
Average temperature yesterday: 66 °F

Past Weeks' High & Low Weather Summary

 TemperatureHumidityPressure
High82 °F (May 2, 2:30 PM)100% (Apr 21, 7:30 AM)30.18 "Hg (Apr 21, 7:30 AM)
Low48 °F (Apr 20, 12:30 AM)34% (May 2, 5:00 PM)29.80 "Hg (May 4, 4:00 AM)
Average62 °F75%30.03 "Hg
* Reported Apr 19 3:00 PM — May 4 3:00 PM, Rabat, Weather by CustomWeather, © 2015

Note: Actual official high and low records may vary slightly from our data, if they occured in-between our weather recording intervals... More about our weather records

Advertising

Rabat weather history for previous 24 hours

 ConditionsComfort  
Time TempWeatherWind HumidityBarometerVisibility
3:00 PM
Mon, May 4
72 °FClear.13 mph53%29.92 "Hg5 mi
2:30 PM75 °FClear.14 mph41%29.92 "Hg5 mi
2:00 PM73 °FClear.14 mph44%29.89 "Hg5 mi
1:30 PM72 °FClear.13 mph44%29.89 "Hg5 mi
1:00 PM75 °FClear.12 mph41%29.89 "Hg5 mi
12:30 PM75 °FClear.9 mph47%29.89 "Hg4 mi
12:00 PM77 °FClear.7 mph36%29.89 "Hg4 mi
11:30 AM77 °FClear.7 mph39%29.86 "Hg4 mi
11:00 AM73 °FClear.6 mph47%29.89 "Hg4 mi
10:30 AM72 °FClear.6 mph57%29.86 "Hg4 mi
10:00 AM70 °FClear.7 mph69%29.89 "Hg4 mi
9:30 AM68 °FClear.6 mph73%29.86 "Hg3 mi
9:00 AM64 °FClear.5 mph88%29.86 "Hg3 mi
8:30 AM63 °FClear.2 mph94%29.86 "Hg3 mi
8:00 AM59 °FClear.2 mph94%29.86 "Hg3 mi
7:30 AM59 °FClear.No wind88%29.86 "Hg3 mi
7:00 AM57 °FClear.No wind94%29.83 "Hg3 mi
6:30 AM59 °FClear.No wind94%29.83 "Hg3 mi
6:00 AM61 °FClear.2 mph94%29.83 "Hg3 mi
5:30 AM61 °FClear.3 mph88%29.83 "Hg3 mi
5:00 AM59 °FClear.2 mph94%29.83 "Hg2 mi
4:30 AM57 °FClear.2 mph94%29.80 "Hg3 mi
4:00 AM59 °FClear.2 mph94%29.80 "Hg3 mi
3:30 AM59 °FClear.No wind88%29.83 "Hg3 mi
3:00 AM61 °FClear.No wind88%29.83 "Hg4 mi
2:30 AM61 °FClear.1 mph83%29.83 "Hg4 mi
2:00 AM61 °FClear.3 mph77%29.86 "Hg4 mi
1:30 AM61 °FClear.1 mph77%29.86 "Hg4 mi
1:00 AM61 °FClear.No wind77%29.86 "Hg4 mi
12:30 AM61 °FClear.2 mph72%29.86 "Hg4 mi
12:00 AM61 °FClear.No wind72%29.86 "Hg4 mi
11:30 PM
Sun, May 3
64 °FClear.2 mph64%29.86 "Hg4 mi
11:00 PM64 °FClear.3 mph68%29.86 "Hg4 mi
10:30 PM64 °FClear.5 mph68%29.89 "Hg4 mi
10:00 PM64 °FClear.3 mph68%29.89 "Hg4 mi
9:30 PM64 °FClear.2 mph73%29.92 "Hg4 mi
9:00 PM64 °FClear.3 mph73%29.89 "Hg4 mi
8:30 PM66 °FClear.No wind73%29.89 "Hg4 mi
8:00 PM66 °FClear.1 mph73%29.89 "Hg5 mi
7:30 PM68 °FClear.7 mph69%29.89 "Hg5 mi
7:00 PM68 °FClear.10 mph73%29.89 "Hg5 mi
6:30 PM70 °FClear.12 mph60%29.89 "Hg5 mi
6:00 PM72 °FClear.15 mph50%29.86 "Hg5 mi
5:30 PM72 °FClear.14 mph57%29.86 "Hg5 mi
5:00 PM73 °FClear.12 mph53%29.86 "Hg5 mi
4:30 PM72 °FClear.14 mph57%29.86 "Hg5 mi
4:00 PM77 °FClear.15 mph47%29.86 "Hg5 mi
Weather by CustomWeather, © 2015

See weather overviewHow to use our weather pages